1501149601.05,35053,19.44,73356.0,8.21,3.29,3.37,0,*79
1501149602.31,35054,19.44,73358.3,8.21,3.15,3.15,0,*71
1501149603.51,35055,19.44,73358.3,8.21,2.91,2.99,0,*78
1501149604.73,35056,19.44,73356.5,8.19,2.73,2.77,0,*7C
1501149605.93,35057,19.44,73358.0,8.17,2.95,2.95,0,*77
1501149607.13,35058,19.5,73362.0,8.19,2.89,2.95,0,*7B
1501149608.36,35059,19.44,73360.0,8.19,2.85,2.77,0,*7A
1501149609.59,35060,19.44,73356.8,8.19,2.73,2.73,0,*7D
1501149610.84,35061,19.44,73358.8,8.17,2.85,2.89,0,*7E
1501149612.07,35062,19.44,73358.0,8.19,2.85,2.89,0,*73
1501149613.3,35063,19.44,73358.5,8.17,2.99,3.11,0,*71
1501149614.51,35064,19.44,73362.3,8.17,2.65,2.65,0,*77
1501149615.72,35065,19.5,73362.0,8.15,2.69,2.69,0,*74
1501149616.97,35066,19.44,73360.3,8.11,2.55,2.59,0,*7F
1501149618.22,35067,19.44,73360.3,8.11,2.69,2.69,0,*72
1501149619.47,35068,19.44,73358.0,8.11,2.77,2.77,0,*7D
1501149620.72,35069,19.44,73358.8,8.11,2.43,2.55,0,*7B
1501149621.92,35070,19.44,73356.5,8.11,2.31,2.31,0,*74
1501149623.15,35071,19.5,73362.3,8.09,2.59,2.59,0,*7C
1501149624.34,35072,19.44,73356.8,8.07,2.27,2.31,0,*76
1501149625.59,35073,19.44,73358.0,8.07,2.13,2.13,0,*70
1501149626.82,35074,19.5,73362.3,8.05,2.17,2.09,0,*7A
1501149628.02,35075,19.44,73358.8,8.05,2.35,2.25,0,*75
1501149629.25,35076,19.44,73358.0,8.05,2.59,2.51,0,*7F
1501149630.5,35077,19.44,73358.8,8.03,2.85,2.73,0,*79
1501149631.75,35078,19.44,73358.0,8.03,2.73,2.69,0,*74
1501149632.98,35079,19.44,73356.5,8.03,2.61,2.59,0,*75
1501149634.21,35080,19.44,73356.8,8.01,2.55,2.55,0,*7A
1501149635.43,35081,19.44,73358.0,8.01,2.59,2.55,0,*77
1501149636.64,35082,19.44,73356.8,8.01,2.65,2.59,0,*77
1501149637.89,35083,19.44,73358.5,7.99,2.55,2.55,0,*77
1501149639.11,35084,19.44,73356.5,7.99,2.61,2.55,0,*77
1501149640.34,35085,19.44,73356.5,7.99,2.65,2.73,0,*76
1501149641.59,35086,19.44,73358.0,7.99,2.55,2.55,0,*72
1501149642.8,35087,19.44,73354.8,7.99,2.61,2.61,0,*73
1501149644.02,35088,19.44,73362.8,7.99,2.77,2.65,0,*7F
1501149645.25,35089,19.44,73360.3,7.95,2.89,2.95,0,*7C
1501149646.49,35090,19.44,73356.0,7.97,3.11,3.03,0,*78
1501149647.72,35091,19.44,73358.5,8.01,2.59,2.59,0,*7A
1501149648.93,35092,19.44,73358.8,7.97,2.65,2.73,0,*7E
1501149650.18,35093,19.44,73356.0,7.95,2.59,2.73,0,*72
1501149651.42,35094,19.44,73358.3,7.95,2.51,2.61,0,*7E
1501149652.65,35095,19.44,73358.5,7.95,2.77,2.95,0,*70
1501149653.9,35096,19.44,73354.8,7.95,2.69,2.77,0,*70
1501149655.16,35097,19.44,73358.3,7.95,2.85,2.89,0,*72
1501149656.36,35098,19.44,73358.8,7.93,2.99,3.11,0,*76
1501149657.6,35099,19.44,73356.3,7.93,3.07,3.07,0,*76
1501149658.8,35100,19.44,73356.5,7.93,2.95,3.11,0,*7A
1501149660.04,35101,19.44,73360.5,7.93,3.11,3.07,0,*71
1501149661.28,35102,19.44,73358.5,7.93,3.07,3.11,0,*72
1501149662.51,35103,19.44,73358.3,7.93,3.11,3.11,0,*74
1501149663.74,35104,19.44,73360.3,7.93,2.85,2.89,0,*7F
1501149664.97,35105,19.44,73360.3,7.93,2.77,2.73,0,*76
1501149666.15,35106,19.44,73358.5,7.89,2.95,2.95,0,*7A
1501149667.33,35107,19.5,73360.0,7.89,2.91,2.91,0,*7B
1501149668.54,35108,19.44,73356.5,7.89,2.95,3.03,0,*7A
1501149669.78,35109,19.44,73360.5,7.89,3.07,3.07,0,*75
1501149670.97,35110,19.44,73362.0,7.89,2.65,2.65,0,*7D
1501149672.2,35111,19.44,73360.0,7.89,3.03,3.03,0,*7C
1501149673.43,35112,19.44,73356.8,7.89,3.15,3.19,0,*73
1501149674.68,35113,19.44,73356.8,7.89,3.07,3.15,0,*7D
1501149675.91,35114,19.44,73358.0,7.89,3.03,3.03,0,*79
1501149677.09,35115,19.44,73358.0,7.89,2.95,2.95,0,*78
1501149678.3,35116,19.44,73356.3,7.87,2.91,2.99,0,*7D
1501149679.48,35117,19.44,73358.5,7.89,2.91,2.91,0,*7A
1501149680.71,35118,19.44,73358.5,7.89,2.81,2.85,0,*71
1501149681.94,35119,19.44,73360.3,7.85,2.89,2.81,0,*70
1501149683.21,35120,19.44,73360.0,7.87,3.11,3.15,0,*74
1501149684.42,35121,19.44,73356.5,7.85,2.81,2.91,0,*72
1501149685.68,35122,19.44,73358.3,7.87,3.03,3.03,0,*72
1501149686.91,35123,19.44,73358.5,7.85,3.11,3.23,0,*70
1501149688.15,35124,19.44,73356.3,7.85,3.23,3.33,0,*77
1501149689.38,35125,19.44,73356.3,7.85,3.37,3.49,0,*7E
1501149690.6,35126,19.44,73358.3,7.85,3.49,3.53,0,*7F
1501149691.83,35127,19.44,73356.8,7.89,3.49,3.53,0,*72
1501149693.0,35128,19.5,73362.3,7.89,3.55,3.63,0,*73
1501149694.21,35129,19.44,73362.0,7.85,3.59,3.71,0,*71
1501149695.41,35130,19.44,73358.8,7.85,3.53,3.63,0,*70
1501149696.64,35131,19.44,73358.3,7.89,3.41,3.49,0,*76
1501149697.88,35132,19.44,73358.8,7.89,3.37,3.41,0,*7C
1501149699.1,35133,19.44,73358.8,7.89,3.53,3.53,0,*7C
1501149700.32,35134,19.44,73362.0,7.89,3.29,3.41,0,*75
1501149701.5,35135,19.44,73358.5,7.89,3.25,3.29,0,*76
1501149702.73,35136,19.44,73358.3,7.89,3.37,3.49,0,*70
1501149703.96,35137,19.44,73358.0,7.93,3.33,3.45,0,*72
1501149705.2,35138,19.44,73358.3,7.89,3.41,3.49,0,*7F
1501149706.41,35139,19.44,73360.0,7.93,3.71,3.81,0,*72
1501149707.65,35140,19.44,73358.0,7.93,3.45,3.45,0,*73
1501149708.89,35141,19.44,73358.8,7.89,3.15,3.15,0,*79
1501149710.09,35142,19.44,73360.0,7.89,2.95,3.07,0,*70
1501149711.33,35143,19.44,73358.0,7.89,3.03,3.07,0,*7F
1501149712.53,35144,19.44,73356.0,7.89,3.19,3.25,0,*73
1501149713.73,35145,19.44,73358.0,7.89,3.55,3.67,0,*7C
1501149714.94,35146,19.44,73358.0,7.89,3.29,3.37,0,*71
1501149716.16,35147,19.44,73358.5,7.89,2.69,2.85,0,*7D
1501149717.38,35148,19.44,73360.3,7.89,3.15,3.25,0,*73
1501149718.59,35149,19.44,73358.0,7.89,3.15,3.29,0,*7E
1501149719.82,35150,19.44,73356.5,7.89,3.37,3.49,0,*70
1501149721.08,35151,19.44,73358.8,7.87,3.33,3.37,0,*72
1501149722.33,35152,19.44,73356.8,7.87,3.23,3.23,0,*75
1501149723.59,35153,19.44,73360.0,7.87,3.33,3.45,0,*75
1501149724.82,35154,19.44,73358.0,7.89,3.53,3.67,0,*7A
1501149726.02,35155,19.44,73358.3,7.89,3.29,3.37,0,*73
1501149727.24,35156,19.44,73358.3,7.89,3.29,3.41,0,*71
1501149728.47,35157,19.44,73358.8,7.89,2.73,2.81,0,*73
1501149729.67,35158,19.44,73358.3,7.89,2.85,2.91,0,*74
1501149730.85,35159,19.44,73358.5,7.89,2.91,2.91,0,*70
1501149732.03,35160,19.44,73358.8,7.89,2.95,2.95,0,*7A
1501149733.26,35161,19.44,73360.5,7.85,3.03,3.11,0,*74
1501149734.53,35162,19.5,73360.8,7.87,3.15,3.23,0,*73
1501149735.78,35163,19.44,73360.0,7.87,3.37,3.45,0,*72
1501149737.05,35164,19.44,73358.5,7.87,3.37,3.45,0,*75
1501149738.31,35165,19.44,73358.3,7.87,3.23,3.33,0,*70
1501149739.56,35166,19.44,73358.8,7.87,3.33,3.37,0,*76
1501149740.8,35167,19.44,73360.0,7.87,3.25,3.37,0,*70
1501149742.03,35168,19.44,73358.8,7.87,3.23,3.25,0,*7A
1501149743.27,35169,19.44,73362.0,7.85,3.11,3.15,0,*7B
1501149744.51,35170,19.44,73356.8,7.87,3.15,3.25,0,*76
1501149745.69,35171,19.44,73358.0,7.89,3.63,3.63,0,*7A
1501149746.89,35172,19.44,73356.5,7.89,3.53,3.63,0,*7A
1501149748.09,35173,19.44,73358.8,7.89,3.49,3.55,0,*75
1501149749.31,35174,19.44,73362.8,7.87,3.53,3.59,0,*7B
1501149750.53,35175,19.44,73356.0,7.89,3.29,3.41,0,*70
1501149751.75,35176,19.44,73356.5,7.89,3.19,3.19,0,*7D
1501149753.01,35177,19.44,73358.8,7.87,3.11,3.11,0,*72
1501149754.25,35178,19.44,73358.5,7.85,3.03,3.03,0,*7F
1501149755.51,35179,19.44,73358.0,7.87,3.03,3.23,0,*7E
1501149756.72,35180,19.44,73358.3,7.85,3.25,3.45,0,*7E
1501149757.93,35181,19.44,73358.8,7.85,3.25,3.33,0,*7E
1501149759.19,35182,19.44,73358.5,7.87,3.37,3.49,0,*71
1501149760.45,35183,19.44,73358.0,7.87,3.23,3.15,0,*7C
1501149761.71,35184,19.44,73360.0,7.87,3.03,3.11,0,*7D
1501149762.98,35185,19.44,73358.3,7.87,3.15,3.33,0,*7B
1501149764.24,35186,19.44,73360.8,7.87,3.11,3.23,0,*7D
1501149765.45,35187,19.44,73356.8,7.85,2.55,2.61,0,*78
1501149766.67,35188,19.44,73356.3,7.85,2.69,2.69,0,*70
1501149767.9,35189,19.44,73356.5,7.85,2.55,2.55,0,*71
1501149769.09,35190,19.44,73358.5,7.85,2.91,2.99,0,*71
1501149770.32,35191,19.44,73360.3,7.85,3.37,3.45,0,*7D
1501149771.55,35192,19.44,73356.3,7.85,3.45,3.33,0,*7A
1501149772.81,35193,19.44,73356.3,7.83,3.07,3.11,0,*7B
1501149774.04,35194,19.44,73356.8,7.83,3.29,3.23,0,*71
1501149775.29,35195,19.44,73360.0,7.83,3.11,3.07,0,*7D
1501149776.55,35196,19.44,73358.3,7.83,3.11,3.11,0,*79
1501149777.8,35197,19.44,73356.0,7.83,3.07,3.07,0,*78
1501149779.03,35198,19.44,73358.0,7.85,3.45,3.53,0,*76
1501149780.26,35199,19.44,73358.8,7.81,3.33,3.45,0,*75
1501149781.49,35200,19.44,73358.8,7.83,3.29,3.33,0,*7E
1501149782.74,35201,19.44,73356.3,7.83,3.19,3.19,0,*74
1501149783.98,35202,19.44,73358.5,7.83,3.19,3.23,0,*7E
1501149785.19,35203,19.44,73360.0,7.81,3.45,3.59,0,*79
1501149786.44,35204,19.44,73356.8,7.83,3.67,3.71,0,*76
1501149787.65,35205,19.44,73356.3,7.83,3.81,3.81,0,*70
1501149788.86,35206,19.44,73362.0,7.85,3.25,3.33,0,*72
1501149790.11,35207,19.44,73356.8,7.83,3.19,3.23,0,*7B
1501149791.33,35208,19.44,73360.3,7.83,3.19,3.29,0,*7E
1501149792.55,35209,19.44,73356.5,7.83,2.25,2.35,0,*7D
1501149793.78,35210,19.44,73358.3,7.81,1.89,1.85,0,*7A
1501149795.01,35211,19.44,73360.5,7.81,2.05,2.05,0,*77
1501149796.24,35212,19.44,73356.5,7.79,2.81,2.85,0,*77
1501149797.44,35213,19.44,73360.3,7.79,2.81,2.91,0,*73
1501149798.66,35214,19.44,73362.3,7.77,2.89,2.91,0,*72
1501149799.92,35215,19.44,73362.5,7.77,2.77,2.81,0,*73
1501149801.14,35216,19.44,73362.5,7.79,2.69,2.73,0,*7C
1501149802.34,35217,19.44,73362.5,7.77,2.27,2.31,0,*7F
1501149803.57,35218,19.44,73362.0,7.75,2.59,2.81,0,*70
1501149804.8,35219,19.44,73360.5,7.73,2.61,2.73,0,*71
1501149806.02,35220,19.44,73360.5,7.73,2.61,2.73,0,*7B
1501149807.24,35221,19.44,73364.0,7.75,3.03,3.23,0,*7D
1501149808.48,35222,19.44,73358.5,7.73,2.77,2.85,0,*77
1501149809.66,35223,19.44,73360.8,7.75,2.91,2.91,0,*7D
1501149810.91,35224,19.44,73362.3,7.73,3.19,3.33,0,*74
1501149812.13,35225,19.44,73358.3,7.75,2.77,2.85,0,*76
1501149813.3,35226,19.44,73356.8,7.75,3.25,3.25,0,*78
1501149814.53,35227,19.44,73362.5,7.75,3.11,3.15,0,*7D
1501149815.79,35228,19.44,73360.0,7.73,3.07,3.11,0,*77
1501149817.02,35229,19.44,73358.0,7.75,3.23,3.33,0,*76
1501149818.26,35230,19.44,73356.5,7.73,3.11,3.23,0,*78
1501149819.47,35231,19.44,73358.8,7.75,3.23,3.25,0,*78
1501149820.69,35232,19.44,73358.8,7.75,3.41,3.53,0,*7E
1501149821.86,35233,19.44,73360.3,7.75,3.59,3.63,0,*75
1501149823.11,35234,19.44,73358.8,7.77,3.41,3.53,0,*7A
1501149824.34,35235,19.44,73362.8,7.79,3.07,3.19,0,*79
1501149825.57,35236,19.44,73356.5,7.79,3.07,3.19,0,*7A
1501149826.8,35237,19.44,73356.5,7.79,3.03,3.15,0,*73
1501149828.0,35238,19.44,73360.5,7.77,3.25,3.25,0,*75
1501149829.26,35239,19.44,73358.5,7.77,3.11,3.15,0,*70
1501149830.44,35240,19.44,73356.3,7.79,2.91,2.95,0,*70
1501149831.66,35241,19.44,73362.3,7.77,2.89,2.91,0,*72
1501149832.89,35242,19.44,73356.8,7.79,3.07,3.19,0,*79
1501149834.15,35243,19.44,73356.5,7.77,3.15,3.23,0,*7C
1501149835.38,35244,19.44,73358.8,7.77,3.25,3.33,0,*79
1501149836.58,35245,19.44,73358.0,7.79,3.25,3.37,0,*72
1501149837.79,35246,19.44,73358.0,7.77,2.91,2.91,0,*7C
1501149838.98,35247,19.44,73356.0,7.79,2.85,2.91,0,*76
1501149840.24,35248,19.44,73356.5,7.77,3.03,3.03,0,*72
1501149841.45,35249,19.44,73358.3,7.79,3.29,3.41,0,*73
1501149842.7,35250,19.44,73362.0,7.77,3.23,3.37,0,*7E
1501149843.9,35251,19.44,73356.8,7.79,2.69,2.91,0,*73
1501149845.13,35252,19.44,73358.3,7.77,2.99,3.15,0,*7C
1501149846.33,35253,19.44,73362.3,7.79,3.41,3.55,0,*73
1501149847.54,35254,19.44,73360.3,7.77,2.65,2.65,0,*7F
1501149848.77,35255,19.44,73356.5,7.79,2.47,2.59,0,*7F
1501149850.02,35256,19.44,73358.8,7.77,2.69,2.89,0,*73
1501149851.25,35257,19.44,73358.8,7.77,2.81,2.91,0,*7D
1501149852.48,35258,19.44,73356.3,7.75,2.69,2.81,0,*77
1501149853.73,35259,19.44,73360.0,7.77,2.77,2.81,0,*7B
1501149854.96,35260,19.44,73360.3,7.75,2.39,2.43,0,*77
1501149856.22,35261,19.44,73358.5,7.77,2.77,2.89,0,*78
1501149857.44,35262,19.44,73358.0,7.75,2.51,2.59,0,*70
1501149858.67,35263,19.44,73360.8,7.75,2.77,2.77,0,*79
1501149859.89,35264,19.44,73358.3,7.75,3.03,3.11,0,*7D
1501149861.09,35265,19.44,73360.5,7.75,2.91,3.11,0,*76
1501149862.31,35266,19.44,73362.3,7.73,3.19,3.29,0,*79
1501149863.54,35267,19.44,73360.0,7.75,3.15,3.23,0,*78
1501149864.74,35268,19.44,73358.5,7.75,2.99,3.03,0,*70
1501149865.94,35269,19.44,73358.8,7.75,2.95,3.07,0,*79
1501149867.16,35270,19.44,73360.0,7.73,2.99,3.19,0,*74
1501149868.33,35271,19.44,73358.3,7.75,2.91,2.99,0,*72
1501149869.56,35272,19.44,73360.8,7.73,3.19,3.29,0,*7C
1501149870.76,35273,19.44,73362.5,7.75,3.15,3.25,0,*7B
1501149871.98,35274,19.44,73358.8,7.75,3.53,3.53,0,*7F
1501149873.19,35275,19.44,73362.5,7.75,3.49,3.53,0,*75
1501149874.36,35276,19.44,73362.5,7.75,3.59,3.63,0,*74
1501149875.56,35277,19.44,73362.3,7.75,3.53,3.63,0,*7F
1501149876.78,35278,19.44,73358.5,7.77,3.53,3.63,0,*72
1501149878.01,35279,19.44,73356.0,7.77,3.41,3.63,0,*70
1501149879.21,35280,19.44,73362.5,7.77,3.59,3.63,0,*7F
1501149880.38,35281,19.44,73362.3,7.79,3.55,3.63,0,*7C
1501149881.6,35282,19.44,73360.0,7.79,3.75,3.79,0,*76
1501149882.84,35283,19.44,73360.0,7.77,3.75,3.85,0,*7A
1501149884.03,35284,19.44,73362.8,7.79,3.63,3.79,0,*77
1501149885.23,35285,19.44,73360.8,7.81,3.55,3.71,0,*7C
1501149886.44,35286,19.44,73360.8,7.81,3.55,3.71,0,*7F
1501149887.64,35287,19.44,73360.5,7.81,3.41,3.55,0,*7D
1501149888.85,35288,19.44,73358.5,7.81,3.71,3.89,0,*70
1501149890.09,35289,19.44,73362.0,7.81,3.67,3.79,0,*79
1501149891.29,35290,19.44,73364.0,7.81,3.55,3.67,0,*7F
1501149892.53,35291,19.44,73362.5,7.81,3.67,3.71,0,*78
1501149893.75,35292,19.44,73362.3,7.83,3.59,3.71,0,*74
1501149894.98,35293,19.44,73356.8,7.83,3.79,3.89,0,*70
1501149896.17,35294,19.44,73360.8,7.81,3.81,3.93,0,*79
1501149897.38,35295,19.44,73362.8,7.83,3.89,3.93,0,*72
1501149898.61,35296,19.44,73360.8,7.83,3.89,4.01,0,*7D
1501149899.82,35297,19.44,73364.0,7.87,3.85,3.93,0,*78
1501149901.0,35298,19.44,73362.8,7.85,3.85,3.93,0,*75
1501149902.24,35299,19.44,73358.5,7.85,3.71,3.75,0,*77
1501149903.5,35300,19.44,73362.8,7.87,3.71,3.75,0,*74
1501149904.7,35301,19.44,73362.0,7.85,3.63,3.71,0,*70
1501149905.94,35302,19.44,73362.0,7.87,3.25,3.37,0,*71
1501149907.14,35303,19.44,73356.5,7.89,3.53,3.63,0,*7E
1501149908.4,35304,19.44,73362.5,7.87,3.37,3.45,0,*71
1501149909.6,35305,19.44,73360.0,7.85,3.59,3.71,0,*7D
1501149910.84,35306,19.44,73360.5,7.87,3.63,3.75,0,*71
1501149912.09,35307,19.44,73360.5,7.87,3.33,3.37,0,*73
1501149913.34,35308,19.44,73358.5,7.87,3.49,3.53,0,*73
1501149914.57,35309,19.44,73362.8,7.87,3.53,3.59,0,*73
1501149915.8,35310,19.44,73364.0,7.87,3.63,3.71,0,*72
1501149917.03,35311,19.44,73360.0,7.87,3.53,3.63,0,*73
1501149918.28,35312,19.44,73362.8,7.87,3.37,3.53,0,*71
1501149919.54,35313,19.44,73360.8,7.87,3.37,3.45,0,*77
1501149920.8,35314,19.44,73364.8,7.87,3.37,3.49,0,*7C
1501149922.03,35315,19.44,73360.8,7.89,3.49,3.49,0,*7A
1501149923.24,35316,19.44,73362.8,7.85,3.23,3.25,0,*73
1501149924.47,35317,19.44,73366.3,7.85,3.15,3.23,0,*71
1501149925.73,35318,19.44,73362.5,7.87,3.33,3.45,0,*78
1501149926.98,35319,19.44,73362.0,7.87,3.49,3.53,0,*73
1501149928.22,35320,19.44,73360.3,7.87,3.93,4.05,0,*7A
1501149929.42,35321,19.44,73362.8,7.87,3.85,3.85,0,*73
1501149930.65,35322,19.44,73362.5,7.85,3.45,3.53,0,*75
1501149931.9,35323,19.44,73362.8,7.87,3.49,3.53,0,*7A
1501149933.13,35324,19.44,73362.8,7.87,3.63,3.71,0,*75
1501149934.34,35325,19.44,73362.0,7.89,3.63,3.67,0,*7D
1501149935.57,35326,19.44,73362.5,7.89,3.67,3.79,0,*75
1501149936.77,35327,19.44,73362.8,7.89,3.53,3.63,0,*78
1501149938.02,35328,19.44,73362.8,7.87,3.33,3.53,0,*7C
1501149939.2,35329,19.44,73366.5,7.89,3.55,3.63,0,*70
1501149940.42,35330,19.44,73362.0,7.89,3.49,3.53,0,*76
1501149941.65,35331,19.44,73362.5,7.89,3.37,3.53,0,*7E
1501149942.88,35332,19.44,73362.3,7.89,3.79,3.79,0,*7F
1501149944.08,35333,19.44,73362.5,7.89,3.53,3.63,0,*7D
1501149945.34,35334,19.44,73366.8,7.87,3.23,3.37,0,*72
1501149946.57,35335,19.44,73366.8,7.87,3.59,3.71,0,*7C
1501149947.77,35336,19.44,73366.8,7.89,3.63,3.79,0,*70
1501149949.01,35337,19.44,73364.3,7.87,3.59,3.75,0,*7A
1501149950.21,35338,19.44,73362.8,7.89,3.37,3.55,0,*71
1501149951.41,35339,19.44,73360.0,7.89,3.55,3.75,0,*76
1501149952.63,35340,19.44,73360.5,7.89,3.49,3.53,0,*71
1501149953.89,35341,19.44,73360.8,7.87,3.33,3.37,0,*71
1501149955.15,35342,19.44,73360.8,7.87,3.11,3.23,0,*77
1501149956.4,35343,19.44,73360.8,7.87,3.33,3.37,0,*73
1501149957.63,35344,19.44,73364.3,7.89,3.41,3.53,0,*7D
1501149958.86,35345,19.44,73360.8,7.87,3.53,3.63,0,*72
1501149960.06,35346,19.44,73366.5,7.85,3.49,3.59,0,*71
1501149961.29,35347,19.44,73362.0,7.85,3.45,3.53,0,*76
1501149962.5,35348,19.44,73360.3,7.85,3.25,3.37,0,*7D
1501149963.71,35349,19.44,73364.8,7.85,3.25,3.33,0,*78
1501149964.92,35350,19.44,73364.8,7.85,3.71,3.81,0,*78
1501149966.1,35351,19.44,73360.3,7.85,3.81,3.85,0,*72
1501149967.28,35352,19.44,73360.3,7.85,3.85,3.85,0,*75
1501149968.54,35353,19.44,73366.5,7.87,3.45,3.45,0,*76
1501149969.76,35354,19.44,73360.8,7.87,3.49,3.63,0,*79
1501149970.97,35355,19.44,73364.5,7.85,3.97,4.07,0,*7C
1501149972.2,35356,19.44,73364.8,7.87,4.05,4.19,0,*7E
1501149973.45,35357,19.44,73364.0,7.87,3.49,3.53,0,*79
1501149974.71,35358,19.44,73366.5,7.87,3.53,3.67,0,*7A
1501149975.9,35359,19.44,73364.5,7.89,3.53,3.55,0,*74
1501149977.13,35360,19.44,73364.5,7.89,3.49,3.53,0,*73
1501149978.36,35361,19.44,73366.5,7.89,3.41,3.53,0,*7A
1501149979.54,35362,19.44,73366.3,7.89,3.29,3.55,0,*71
1501149980.75,35363,19.44,73364.8,7.85,2.91,3.03,0,*7D
1501149982.01,35364,19.44,73364.5,7.87,2.89,3.03,0,*71
1501149983.26,35365,19.44,73362.0,7.87,3.33,3.49,0,*7E
1501149984.49,35366,19.44,73366.5,7.85,3.33,3.49,0,*7F
1501149985.73,35367,19.44,73366.5,7.85,3.33,3.45,0,*72
1501149986.93,35368,19.44,73366.8,7.85,3.53,3.59,0,*76
1501149988.19,35369,19.44,73364.3,7.87,3.37,3.49,0,*76
1501149989.44,35370,19.44,73362.0,7.87,3.33,3.49,0,*7A
1501149990.65,35371,19.44,73364.5,7.85,3.49,3.63,0,*7C
1501149991.85,35372,19.44,73366.0,7.85,3.59,3.71,0,*7D
1501149993.05,35373,19.44,73364.3,7.85,3.49,3.59,0,*77
1501149994.23,35374,19.44,73360.3,7.85,3.63,3.63,0,*71
1501149995.42,35375,19.44,73366.3,7.85,3.85,3.93,0,*77
1501149996.63,35376,19.44,73364.0,7.85,4.05,4.07,0,*71
1501149997.87,35377,19.44,73364.3,7.87,3.93,4.05,0,*78
1501149999.08,35378,19.44,73364.8,7.87,3.85,3.93,0,*78
1501150000.29,35379,19.44,73364.3,7.85,3.85,4.05,0,*73
1501150001.5,35380,19.44,73362.0,7.87,3.93,4.07,0,*72
1501150002.71,35381,19.44,73362.0,7.85,4.15,4.31,0,*7D
1501150003.91,35382,19.44,73360.8,7.89,4.01,4.11,0,*75
1501150005.09,35383,19.44,73364.5,7.89,4.11,4.23,0,*74
1501150006.28,35384,19.44,73364.3,7.89,3.89,4.07,0,*73
1501150007.52,35385,19.44,73362.8,7.89,3.67,3.75,0,*70
1501150008.73,35386,19.44,73360.8,7.89,3.75,3.85,0,*7F
1501150009.96,35387,19.44,73364.0,7.89,3.41,3.37,0,*70
1501150011.19,35388,19.44,73364.5,7.89,3.15,3.19,0,*72
1501150012.4,35389,19.44,73366.0,7.89,3.25,3.37,0,*7C
1501150013.6,35390,19.44,73364.3,7.93,3.49,3.59,0,*7D
1501150014.81,35391,19.44,73366.3,7.89,3.25,3.37,0,*75
1501150016.02,35392,19.44,73366.0,7.89,3.25,3.49,0,*7F
1501150017.25,35393,19.44,73366.5,7.89,3.37,3.49,0,*7D
1501150018.45,35394,19.44,73364.5,7.87,3.81,3.85,0,*79
1501150019.66,35395,19.44,73366.8,7.87,3.85,4.07,0,*71
1501150020.85,35396,19.44,73364.3,7.89,3.89,4.07,0,*70
1501150022.06,35397,19.44,73366.0,7.87,3.59,3.81,0,*7B
1501150023.3,35398,19.44,73364.0,7.87,3.25,3.49,0,*7B
1501150024.53,35399,19.44,73368.3,7.87,2.99,3.11,0,*71
1501150025.76,35400,19.44,73364.3,7.87,2.99,3.23,0,*77
1501150027.0,35401,19.44,73366.0,7.85,3.11,3.33,0,*74
1501150028.25,35402,19.44,73366.8,7.87,3.03,3.23,0,*77
1501150029.49,35403,19.44,73366.8,7.85,3.23,3.37,0,*73
1501150030.75,35404,19.44,73366.3,7.87,3.37,3.45,0,*76
1501150031.95,35405,19.44,73364.3,7.89,3.55,3.67,0,*7D
1501150033.19,35406,19.44,73364.3,7.89,3.67,3.75,0,*7C
1501150034.4,35407,19.44,73366.0,7.89,3.25,3.41,0,*7C
1501150035.66,35408,19.44,73364.3,7.87,3.23,3.37,0,*7A
1501150036.9,35409,19.44,73362.5,7.87,3.25,3.33,0,*79
1501150038.13,35410,19.44,73368.8,7.87,3.25,3.37,0,*75
1501150039.39,35411,19.44,73366.0,7.87,3.11,3.15,0,*73
1501150040.63,35412,19.44,73366.8,7.85,3.37,3.49,0,*7F
1501150041.86,35413,19.44,73366.3,7.85,3.37,3.45,0,*72
1501150043.12,35414,19.44,73364.5,7.87,3.03,3.11,0,*71
1501150044.31,35415,19.44,73366.3,7.85,2.91,2.91,0,*71
1501150045.57,35416,19.44,73364.8,7.87,3.23,3.37,0,*75
1501150046.8,35417,19.44,73364.3,7.85,3.37,3.37,0,*73
1501150048.03,35418,19.44,73366.0,7.87,3.25,3.45,0,*78
1501150049.27,35419,19.44,73364.0,7.85,3.45,3.45,0,*7D
1501150050.5,35420,19.44,73362.0,7.85,3.53,3.75,0,*73
1501150051.73,35421,19.44,73364.3,7.85,3.53,3.71,0,*76
1501150052.95,35422,19.44,73366.8,7.87,3.49,3.59,0,*76
1501150054.2,35423,19.44,73366.0,7.87,3.75,3.81,0,*7D
1501150055.43,35424,19.44,73364.5,7.87,3.59,3.75,0,*7F
1501150056.66,35425,19.44,73362.5,7.89,3.19,3.37,0,*72
1501150057.92,35426,19.44,73362.5,7.87,3.15,3.37,0,*73
1501150059.13,35427,19.44,73360.5,7.85,3.25,3.37,0,*73
1501150060.37,35428,19.44,73364.0,7.85,3.15,3.37,0,*7F
1501150061.58,35429,19.44,73364.3,7.85,3.11,3.25,0,*79
1501150062.81,35430,19.44,73364.3,7.85,3.11,3.23,0,*77
1501150064.04,35431,19.44,73362.0,7.85,3.37,3.49,0,*7E
1501150065.27,35432,19.44,73364.0,7.85,3.37,3.53,0,*76
1501150066.46,35433,19.44,73364.0,7.85,3.81,3.93,0,*76
1501150067.67,35434,19.44,73364.3,7.85,3.75,3.85,0,*7D
1501150068.85,35435,19.44,73364.3,7.85,3.81,3.85,0,*77
1501150070.05,35436,19.44,73362.0,7.85,3.59,3.75,0,*7E
1501150071.28,35437,19.44,73362.8,7.87,3.85,3.97,0,*70
1501150072.55,35438,19.44,73362.5,7.87,3.75,3.97,0,*70
1501150073.8,35439,19.44,73364.3,7.87,3.49,3.71,0,*76
1501150075.01,35440,19.44,73364.3,7.87,3.63,3.81,0,*7F
1501150076.27,35441,19.44,73364.0,7.87,3.49,3.75,0,*7D
1501150077.52,35442,19.44,73362.3,7.87,3.53,3.75,0,*75
1501150078.75,35443,19.44,73364.8,7.87,3.81,3.97,0,*77
1501150079.96,35444,19.44,73364.5,7.87,3.81,3.93,0,*74
1501150081.2,35445,19.44,73364.0,7.87,3.85,4.05,0,*79
1501150082.4,35446,19.44,73362.8,7.89,3.49,3.63,0,*73
1501150083.6,35447,19.44,73364.3,7.89,3.63,3.79,0,*71
1501150084.81,35448,19.44,73364.5,7.93,3.71,3.89,0,*79
1501150086.01,35449,19.44,73364.5,7.89,3.63,3.79,0,*7F
1501150087.19,35450,19.44,73366.3,7.89,3.63,3.85,0,*74
1501150088.42,35451,19.44,73362.0,7.89,3.37,3.53,0,*7F
1501150089.63,35452,19.44,73362.5,7.89,3.15,3.25,0,*7D
1501150090.84,35453,19.44,73364.0,7.89,2.91,3.03,0,*75
1501150092.05,35454,19.44,73366.5,7.93,2.91,3.03,0,*79
1501150093.26,35455,19.44,73368.5,7.89,2.95,3.07,0,*73
1501150094.48,35456,19.44,73362.5,7.89,3.19,3.37,0,*76
1501150095.69,35457,19.44,73366.0,7.89,3.19,3.29,0,*78
1501150096.89,35458,19.44,73366.8,7.89,3.29,3.53,0,*79
1501150098.12,35459,19.44,73366.8,7.89,3.37,3.49,0,*7C
1501150099.35,35460,19.44,73366.0,7.89,3.41,3.53,0,*7C
1501150100.57,35461,19.44,73366.3,7.89,3.15,3.29,0,*71
1501150101.83,35462,19.44,73364.3,7.87,3.15,3.23,0,*76
1501150103.06,35463,19.44,73366.3,7.87,3.49,3.63,0,*7A
1501150104.29,35464,19.44,73366.5,7.87,3.71,3.81,0,*7A
1501150105.5,35465,19.44,73362.0,7.89,3.63,3.79,0,*71
1501150106.7,35466,19.44,73366.5,7.89,3.37,3.55,0,*7D
1501150107.9,35467,19.44,73366.3,7.89,3.55,3.79,0,*76
1501150109.1,35468,19.44,73362.8,7.93,3.59,3.79,0,*7E
1501150110.31,35469,19.44,73364.0,7.89,3.25,3.49,0,*7C
1501150111.57,35470,19.44,73364.5,7.87,3.11,3.33,0,*70
1501150112.78,35471,19.44,73366.5,7.93,3.41,3.59,0,*7D
1501150113.99,35472,19.44,73364.8,7.89,3.55,3.75,0,*7E
1501150115.21,35473,19.44,73364.0,7.89,3.49,3.67,0,*71
1501150116.45,35474,19.44,73364.8,7.93,3.67,3.79,0,*7E
1501150117.68,35475,19.44,73366.0,7.93,3.19,3.37,0,*7C
1501150118.89,35476,19.44,73366.5,7.89,3.15,3.29,0,*77
1501150120.1,35477,19.44,73368.8,7.89,3.25,3.41,0,*7B
1501150121.31,35478,19.44,73364.5,7.89,3.41,3.63,0,*76
1501150122.54,35479,19.44,73364.0,7.93,3.15,3.23,0,*79
1501150123.75,35480,19.44,73366.3,7.89,2.95,3.07,0,*7B
1501150124.96,35481,19.44,73366.3,7.89,3.15,3.29,0,*7F
1501150126.16,35482,19.44,73362.8,7.89,3.53,3.63,0,*70
1501150127.36,35483,19.44,73364.0,7.89,3.53,3.55,0,*74
1501150128.59,35484,19.44,73366.0,7.89,3.41,3.53,0,*76
1501150129.79,35485,19.44,73364.3,7.89,3.55,3.79,0,*7A
1501150131.02,35486,19.44,73366.3,7.89,3.41,3.53,0,*74
1501150132.25,35487,19.44,73366.3,7.93,3.41,3.53,0,*7E
1501150133.46,35488,19.44,73366.8,7.93,3.45,3.55,0,*73
1501150134.66,35489,19.44,73362.5,7.93,2.95,3.07,0,*79